Miscellaneous Local Product
Issued by NWS North Platte, NE

Home | Current Version | Previous Version | Text Only | Print | Product List | Glossary On
Versions: 1 2 3 4 5 6 7 8 9 10 11 12 13 14 15 16 17 18 19 20 21 22 23 24 25 26 27 28 29 30 31 32 33 34 35 36 37 38 39 40 41 42 43 44 45 46 47 48 49 50
000
AXUS43 KLBF 171210
MISLBF


WESTERN AND NORTH CENTRAL NEBRASKA HOURLY WEATHER ROUNDUP
NATIONAL WEATHER SERVICE NORTH PLATTE NE
600 AM CST SAT FEB 17 2018

NOTE: "FAIR" INDICATES FEW OR NO CLOUDS BELOW 12,000 FEET WITH NO
SIGNIFICANT WEATHER AND/OR OBSTRUCTIONS TO VISIBILITY.

NOTE: STATIONS NOT REPORTING VARIABLES SUCH AS SKY/WEATHER OR
PRESSURE ARE PROVIDED BY RAWS AND APRS NETWORKS AND ARE NOT UNDER
NATIONAL WEATHER SERVICE QUALITY CONTROL.

...OBSERVATIONS IN AND NEAR THE EASTERN PANHANDLE OF NEBRASKA...

CITY           SKY/WX    TMP DP  RH WIND       PRES   REMARKS
PINE RIDGE     PTCLDY    19  14  81 W3        29.89S
GORDON         FAIR      20  15  82 W7        29.88R WCI  11
CHADRON        CLEAR     15  13  91 W8        29.90R WCI   4
ALLIANCE       CLEAR     19  15  84 W12       29.90R WCI   7
SIDNEY         CLEAR     21  14  74 W8        29.93R WCI  11
$$

...OBSERVATIONS IN NORTHERN NEBRASKA AND FAR SOUTHERN SOUTH DAKOTA...

CITY           SKY/WX    TMP DP  RH WIND       PRES   REMARKS
WINNER         FAIR      25  20  81 SW7       29.88R WCI  17
VALENTINE      PTCLDY    27  21  78 NW8       29.89R WCI  19
AINSWORTH      CLOUDY    27  24  87 W6        29.87R WCI  21
O`NEILL        CLOUDY    26  22  84 W7        29.85R WCI  19
THEDFORD         N/A     30  25  82 W8        29.89R WCI  22
BROKEN BOW     PTCLDY    28  20  71 W7        29.86R WCI  21
ORD            PTCLDY    28  21  75 W13       29.85R WCI  17
ALBION         CLOUDY    29  20  70 W3        29.85R
$$

...OBSERVATIONS IN SOUTHWEST NEBRASKA AND FAR NORTHEAST COLORADO...

CITY           SKY/WX    TMP DP  RH WIND       PRES   REMARKS
WRAY           FAIR      30  21  69 NW10      29.96R WCI  21
HOLYOKE        FAIR      34  19  55 NW13G20   29.95R WCI  25
IMPERIAL       CLEAR     33  20  58 NW10      29.94R WCI  25
OGALLALA       CLEAR     32  20  62 NW13      29.92R WCI  22
NORTH PLATTE   PTCLDY    23  19  85 W7        29.91R WCI  15
MCCOOK         CLEAR     29  22  75 W14       29.92R WCI  18
LEXINGTON      CLEAR     24  18  79 NW3       29.91R
GOTHENBURG       N/A     24  18  78 W3          N/A
CALLAWAY         N/A     26  22  84 NW6         N/A  WCI  19
$$

...OBSERVATIONS IN CENTRAL LINCOLN COUNTY AREA...

CITY           SKY/WX    TMP DP  RH WIND       PRES   REMARKS
N.P. AIRPORT   PTCLDY    23  19  85 W7        29.91R WCI  15
$$

...OBSERVATIONS ACROSS THE ROCKIES AND WESTERN HIGH PLAINS...

CITY           SKY/WX    TMP DP  RH WIND       PRES   REMARKS
RAPID CITY     PTCLDY    28  17  63 NW16      29.87R WCI  16
SCOTTSBLUFF    CLEAR     27  18  69 W8        29.93R WCI  19
CHEYENNE       CLEAR     28  10  46 W23G35    29.93R WCI  14
DENVER         CLEAR     28  11  48 NE7       29.94R WCI  21
BERTHOUD PASS  FAIR       3  -8  60 W54G72    29.81S HAZE    WCI -27
COPPER MTN     CLEAR     12   5  73 W21G26    29.99F WCI  -6
MONARCH PASS     N/A     10   7  85 W45       30.14F WCI -15
ASPEN          CLEAR      8   4  83 S6        30.13R WCI  -2
LARAMIE        CLEAR     20  11  68 W25G33    29.94R WCI   2
CASPER         CLEAR     22  12  65 W16       29.94R WCI   8
$$

...OBSERVATIONS ACROSS THE NORTHERN PLAINS...

CITY           SKY/WX    TMP DP  RH WIND       PRES   REMARKS
BISMARCK       MOCLDY    16  14  92 NW7       29.88R WCI   6
FARGO          FAIR      17  13  84 SW9       29.82R WCI   6
PIERRE         MOCLDY    20  14  77 W14       29.86R WCI   7
SIOUX FALLS    CLOUDY    25  23  92 SW7       29.85R WCI  17
$$

...OBSERVATIONS ACROSS THE CENTRAL AND SOUTHERN PLAINS...

CITY           SKY/WX    TMP DP  RH WIND       PRES   REMARKS
OMAHA          CLOUDY    30  16  56 S12       29.90F WCI  20
GRAND ISLAND   CLEAR     27  17  66 W17       29.88R WCI  14
KANSAS CITY    CLOUDY    33  17  51 S13       29.95F WCI  24
WICHITA        CLOUDY    35  31  85 S9        29.95R WCI  28
DODGE CITY     CLOUDY    36  25  64 NW15      29.93R WCI  27
OKLAHOMA CITY  CLOUDY    37  35  92 W7        30.04F WCI  32
DALLAS         LGT RAIN  44  40  85 SE3       30.07F
AMARILLO       PTCLDY    39  36  89 W9        29.96R WCI  33
$$




USA.gov is the U.S. government's official web portal to all federal, state and local government web resources and services.